This is the latest recevied weather packets stored in our database for station/object 4S6DRJ-13. If no packets are shown the sender has not sent any weather packets the latest 10 day(s).
| Time | Temp. | Humidity | Pressure | Rain* | Wind** | Luminosity | Snow |
|---|---|---|---|---|---|---|---|
| 1787938200 | 27.78° C | 85% | 1011.2 hPa | 0 mm | 0.89 m/s, 224° | 0 W/m² | - |
| 1787938138 | 27.78° C | 85% | 1011.5 hPa | 0 mm | 0.45 m/s, 214° | 0 W/m² | - |
| 1787938077 | 27.78° C | 85% | 1011.4 hPa | 0 mm | 0 m/s | 0 W/m² | - |
| 1787938016 | 27.78° C | 85% | 1011.4 hPa | 0 mm | 0.45 m/s, 208° | 0 W/m² | - |
| 1787937955 | 27.78° C | 85% | 1011.5 hPa | 0 mm | 0.89 m/s, 257° | 0 W/m² | - |
| 1787937893 | 27.78° C | 85% | 1011.5 hPa | 0 mm | 1.34 m/s, 228° | 0 W/m² | - |
| 1787937833 | 27.78° C | 85% | 1011.4 hPa | 0 mm | 0 m/s | 0 W/m² | - |
| 1787937772 | 27.78° C | 85% | 1011.4 hPa | 0 mm | 0.89 m/s, 220° | 0 W/m² | - |
| 1787937711 | 27.78° C | 85% | 1011.4 hPa | 0 mm | 0.45 m/s, 237° | 0 W/m² | - |
| 1787937650 | 27.78° C | 85% | 1011.5 hPa | 0 mm | 0 m/s | 0 W/m² | - |
| 1787937589 | 27.78° C | 85% | 1011.6 hPa | 0 mm | 0.89 m/s, 214° | 0 W/m² | - |
| 1787937529 | 27.78° C | 85% | 1011.5 hPa | 0 mm | 0.89 m/s, 252° | 0 W/m² | - |
| 1787937467 | 27.78° C | 85% | 1011.5 hPa | 0 mm | 0.89 m/s, 212° | 0 W/m² | - |
| 1787937406 | 27.78° C | 85% | 1011.4 hPa | 0 mm | 0.45 m/s, 243° | 0 W/m² | - |
| 1787937351 | 27.78° C | 85% | 1011.4 hPa | 0 mm | 1.34 m/s, 239° | 0 W/m² | - |
| 1787937284 | 27.78° C | 85% | 1011.4 hPa | 0 mm | 1.34 m/s, 204° | 0 W/m² | - |
| 1787937223 | 27.78° C | 85% | 1011.5 hPa | 0 mm | 0.89 m/s, 199° | 0 W/m² | - |
| 1787937163 | 27.78° C | 85% | 1011.4 hPa | 0 mm | 0.89 m/s, 206° | 0 W/m² | - |
| 1787937101 | 27.78° C | 85% | 1011.5 hPa | 0 mm | 0.45 m/s, 273° | 0 W/m² | - |
| 1787937040 | 27.78° C | 85% | 1011.3 hPa | 0 mm | 0.45 m/s, 222° | 0 W/m² | - |
| 1787936979 | 27.78° C | 85% | 1011.5 hPa | 0 mm | 0.89 m/s, 218° | 0 W/m² | - |
| 1787936919 | 27.78° C | 85% | 1011.5 hPa | 0 mm | 0.89 m/s, 251° | 0 W/m² | - |
| 1787936857 | 27.78° C | 85% | 1011.5 hPa | 0 mm | 0.45 m/s, 193° | 0 W/m² | - |
| 1787936796 | 27.78° C | 85% | 1011.4 hPa | 0 mm | 0.45 m/s, 281° | 0 W/m² | - |
| 1787936735 | 27.78° C | 85% | 1011.4 hPa | 0 mm | 0.45 m/s, 218° | 0 W/m² | - |
* Rain latest hour (hover to see other rain measurements)
** Current wind speed in m/s (hover to see current wind gust speed)